Weather Roundup
Issued by NWS Corpus Christi, TX

Home | Current Version | Previous Version | Text Only | Print | Product List | Glossary On
Versions: 1 2 3 4 5 6 7 8 9 10 11 12 13 14 15 16 17 18 19 20 21 22 23 24 25 26 27 28 29 30 31 32 33 34 35 36 37 38 39 40 41 42 43 44 45 46 47 48 49 50
000
ASUS44 KCRP 240110
HRRCRP

SOUTH TEXAS REGIONAL WEATHER ROUNDUP
NATIONAL WEATHER SERVICE CORPUS CHRISTI TX
800 PM CDT SUN APR 23 2017


TXZ229>244-240200-
...CORPUS CHRISTI AREA OBSERVATIONS...

CITY           SKY/WX    TMP DP  RH WIND       PRES   REMARKS
CORPUS CHRISTI CLEAR     71  46  40 N8        29.98R
NAS CORPUS CHR CLEAR     75  45  34 N13       29.98R
ROCKPORT       CLEAR     72  43  35 N8        29.98S
KINGSVILLE NAS CLEAR     72  47  40 NE5       29.98S
ALICE          CLEAR     72  41  32 N6        29.98R
ORANGE GROVE     N/A    N/A N/A N/A MISG      29.99R
FALFURRIAS     CLEAR     74  40  29 CALM      29.99R
$$

...VICTORIA AREA OBSERVATIONS...

CITY           SKY/WX    TMP DP  RH WIND       PRES   REMARKS
VICTORIA       CLEAR     67  47  48 N7        29.99S
BEEVILLE       FAIR      71  44  37 NE6       29.99R
PLEASANTON     CLEAR     72  39  30 E3        29.99S
SAN ANTONIO    CLEAR     71  40  32 NE7       30.00S
$$

...LAREDO AREA OBSERVATIONS...

CITY           SKY/WX    TMP DP  RH WIND       PRES   REMARKS
LAREDO         CLEAR     74  40  29 NE6       29.99S
COTULLA        CLEAR     73  41  31 CALM      29.99S
DEL RIO        NOT AVBL
MCALLEN        CLEAR     77  42  28 NE6       29.99S
HEBBRONVILLE   CLEAR     73  40  30 CALM      30.01R
$$

...OTHER TEXAS OBSERVATIONS...

CITY           SKY/WX    TMP DP  RH WIND       PRES   REMARKS
BROWNSVILLE    CLEAR     70  50  49 NE7       30.01R
HOUSTON        CLEAR     68  47  46 N7        29.99R
COL. STATION   CLEAR     66  45  46 N7        30.00S
AUSTIN         CLEAR     70  42  36 NE8       30.00S
WACO           CLEAR     65  48  54 N5        30.01S
FORT WORTH     PTCLDY    68  40  35 NE8       29.99F
WICHITA FALLS  CLEAR     64  36  35 E7        30.00F
LUBBOCK        PTCLDY    68  33  27 S10       29.99F
EL PASO        FAIR      81  28  14 SE5       29.90F
$$

...MARINE OBSERVATIONS...

STATION/POSITION TIME  SKY/WX   TEMP    WIND        PRES    VSBY  WAVE   SWELL
                                AIR SEA DIR/SP/G                  HT/PER HT/PER
                 (UTC)          (F)     (DEG/KT/KT) (MB)    (MI)  (FT/S) (FT/S)
PORT ARANSAS     0000            74 77  360/ 11/ 12 1015.4S
BUOY 90 E PORT A 2350            71 76  330/ 14/ 17 1014.7          4/ 6   2/ 7
BUOY 45 SE BAFFI 2350            70     350/  8/ 10 1014.5          5/ 8   5/ 8
BUOY 200 E PT IS 2350            70 79  340/ 16/ 19 1014.3          6/ 8   3/ 8
BUOY 15 E GALVES 2350            70 75  330/ 14/ 17 1014.3          2/ 4
$$




USA.gov is the U.S. government's official web portal to all federal, state and local government web resources and services.